Simultaneous Nadir Overpasses (SNOs) Predictions

Prediction of SNOs between AQUA and NOAA-19 Satellite Orbit:

Table of predicted SNOs for the next 14.0 days since TLE Epoch: 2/10/2024
Index Date (AQUA) Time (AQUA) Lat,Lon (AQUA) SZA (AQUA ) Date (NOAA-19) Time (NOAA-19) Lat,Lon (NOAA-19) SZA (NOAA-19 ) Distance(km) Time Diff (sec)
1 02/11/2024 23:49:12 75.92, 177.76 89.93 02/11/2024 23:49:03 75.92, 177.81 89.92 1.59 9
2 02/12/2024 00:38:46 -76.50, -16.46 89.45 02/12/2024 00:39:50 -76.52, -12.67 89.56 98.34 64
3 02/14/2024 03:40:17 -75.87, -59.82 90.86 02/14/2024 03:39:15 -75.88, -59.81 90.84 1.01 62
4 02/14/2024 04:29:42 75.92, 107.67 89.19 02/14/2024 04:30:12 75.93, 107.65 89.20 1.44 30
5 02/16/2024 08:20:47 -75.92,-130.05 91.56 02/16/2024 08:20:23 -75.91,-129.93 91.57 3.37 24
6 02/16/2024 09:10:12 75.98, 37.42 88.50 02/16/2024 09:11:21 75.94, 37.45 88.46 3.60 69
7 02/18/2024 12:11:49 75.73, -7.23 87.49 02/18/2024 12:10:38 75.66, -8.29 87.46 30.33 71
8 02/18/2024 13:01:15 -75.92, 159.86 92.32 02/18/2024 13:01:31 -75.93, 159.92 92.32 1.84 16
9 02/20/2024 16:52:19 75.89, -77.79 86.88 02/20/2024 16:51:42 75.87, -77.77 86.86 2.28 37
10 02/20/2024 17:41:42 -75.93, 89.75 93.10 02/20/2024 17:42:39 -75.94, 89.73 93.09 1.33 57
11 02/22/2024 21:32:45 75.91,-147.91 86.10 02/22/2024 21:32:50 75.90,-147.91 86.09 1.27 5



Historial Predications of SNOs between AQUA and NOAA-19
